Tracking 29892 objects as of 21-Nov-2024
HD Live streaming from Space Station
objects crossing your sky now

STARLINK-5610

Track STARLINK-5610 now!
10-day predictions
STARLINK-5610 is classified as:


NORAD ID: 57244
Int'l Code: 2023-094AC
Perigee: 565.1 km
Apogee: 567.3 km
Inclination: 43.0 °
Period: 95.8 minutes
Semi major axis: 6937 km
RCS: Unknown
Launch date: July 7, 2023
Source: United States (US)
Launch site: AIR FORCE WESTERN TEST RANGE (AFWTR)
Your satellite tracking list
Your tracking list is empty




NASA's NSSDC Master Catalog

Two Line Element Set (TLE):
1 57244U 23094AC  24325.75488002 -.00000229  00000-0 -18726-5 0  9994
2 57244  43.0045  72.9119 0001585 282.3231  77.7434 15.02535959 75973
Source of the keplerian elements: AFSPC